Location: Austin
(30.3000°N, 97.7500°W)
Time: 06:43:15
(UTC-05:00)

S3M - Pass Details

Date: 16 June 2025
Orbit: 949 x 1002 km, 83.0° (Epoch: 07 July)

Event Time Altitude Azimuth Distance (km) Brightness Sun altitude
Rises 04:45:28 0° 353° (N) 3,728 7.6 -19.0°
Reaches altitude 10° 04:48:00 10° 353° (N) 2,777 6.8 -18.6°
Maximum altitude 04:54:24 84° 267° (W) 1,011 4.0 -17.6°
Drops below altitude 10° 05:00:45 10° 179° (S) 2,754 6.0 -16.6°
Enters shadow 05:01:16 - 179° (S) 2,946 6.1 -16.5°
